Midland, TX

8:56 AM CDT on August 27, 2016 (GMT -0500)
Midland International

Weather History for KMAF - August, 2013

Change the Weather History Date:

Monday, August 5, 2013

  Actual Average Record
Temperature  
Mean Temperature 88 °F 82 °F  
Max Temperature 101 °F 95 °F 104 °F (2011)
Min Temperature 74 °F 70 °F 61 °F (1978)
Cooling Degree Days 23 17  
Month to date cooling degree days 117 85  
Year to date cooling degree days 1687 1467  
Since 1 June cooling degree days 1199 1078  
Growing Degree Days 36 (Base 50)    
Moisture  
Dew Point 58 °F    
Average Humidity 45    
Maximum Humidity 68    
Minimum Humidity 21    
Precipitation  
Precipitation 0.00 in 0.06 in 0.50 in (1939)
Month to date precipitation 0.00 0.30  
Year to date precipitation 3.39 8.18  
Sea Level Pressure  
Sea Level Pressure 29.84 in    
Wind  
Wind Speed 12 mph (South)    
Max Wind Speed 23 mph    
Max Gust Speed 28 mph    
Visibility 10 miles    
Events      
T = Trace of Precipitation, MM = Missing Value Source: NWS Daily Summary

Daily Weather History Graph

Daily Weather History Graph

Search for Another Location

Airport or City:

Trip Planner

Search our weather history database for the weather conditions in past years. The results will help you decide how hot, cold, wet, or windy it might be!

Date:

Astronomy

Aug. 05, 2013 Rise Set
Actual Time 7:07 AM CDT 8:42 PM CDT
Civil Twilight 6:40 AM CDT 9:08 PM CDT
Nautical Twilight 6:09 AM CDT 9:39 PM CDT
Astronomical Twilight 5:35 AM CDT 10:12 PM CDT
Moon 6:03 AM CDT (8/5) 7:46 PM CDT (8/5)
Length of Visible Light 14h 27m
Length of Day
13h 34m
Waning Crescent, 1% of the Moon is Illuminated
Aug 5
Waning Crescent
Aug 6
New
Aug 14
First Quarter
Aug 20
Full
Aug 28
Last Quarter

Hourly Weather History & Observations

Time (CDT) Temp. Heat Index Dew Point Humidity Pressure Visibility Wind Dir Wind Speed Gust Speed Precip Events Conditions
12:53 AM 82.9 °F 81.9 °F 54.0 °F 37% 29.89 in 10.0 mi South 10.4 mph - N/A   Clear
1:53 AM 81.0 °F 80.8 °F 55.9 °F 42% 29.88 in 10.0 mi SSE 10.4 mph - N/A   Clear
2:53 AM 81.0 °F 81.3 °F 59.0 °F 47% 29.89 in 10.0 mi South 8.1 mph - N/A   Clear
3:53 AM 80.1 °F 80.7 °F 59.0 °F 48% 29.88 in 10.0 mi SSE 9.2 mph - N/A   Clear
4:53 AM 78.1 °F - 60.1 °F 54% 29.88 in 10.0 mi SSE 12.7 mph - N/A   Clear
5:53 AM 77.0 °F - 61.0 °F 58% 29.88 in 10.0 mi SSE 11.5 mph - N/A   Clear
6:53 AM 73.9 °F - 62.1 °F 66% 29.91 in 10.0 mi SE 5.8 mph - N/A   Clear
7:53 AM 75.0 °F - 63.0 °F 66% 29.91 in 10.0 mi SE 6.9 mph - N/A   Clear
8:53 AM 80.1 °F 81.7 °F 64.0 °F 58% 29.92 in 10.0 mi SSE 13.8 mph - N/A   Clear
9:53 AM 84.0 °F 84.9 °F 63.0 °F 49% 29.91 in 10.0 mi South 15.0 mph - N/A   Clear
10:53 AM 87.1 °F 87.5 °F 62.1 °F 43% 29.90 in 10.0 mi South 13.8 mph 21.9 mph N/A   Clear
11:53 AM 91.0 °F 90.9 °F 61.0 °F 36% 29.89 in 10.0 mi South 15.0 mph 21.9 mph N/A   Clear
12:53 PM 93.0 °F 92.7 °F 60.1 °F 33% 29.87 in 10.0 mi South 12.7 mph 17.3 mph N/A   Clear
1:53 PM 96.1 °F 95.6 °F 59.0 °F 29% 29.85 in 10.0 mi South 11.5 mph 20.7 mph N/A   Clear
2:53 PM 97.0 °F 96.5 °F 59.0 °F 28% 29.82 in 10.0 mi SSW 8.1 mph - N/A   Partly Cloudy
3:53 PM 99.0 °F 98.1 °F 57.9 °F 25% 29.80 in 10.0 mi South 12.7 mph 26.5 mph N/A   Partly Cloudy
4:53 PM 100.0 °F 99.2 °F 57.0 °F 24% 29.77 in 10.0 mi South 12.7 mph - N/A   Partly Cloudy
5:53 PM 100.0 °F 97.9 °F 53.1 °F 21% 29.75 in 10.0 mi WSW 5.8 mph - N/A   Clear
6:53 PM 100.0 °F 98.3 °F 55.0 °F 22% 29.75 in 10.0 mi South 10.4 mph - N/A   Clear
7:53 PM 98.1 °F 96.4 °F 55.9 °F 24% 29.74 in 10.0 mi SSE 11.5 mph - N/A   Clear
8:53 PM 93.9 °F 92.0 °F 55.0 °F 27% 29.75 in 10.0 mi SSE 12.7 mph - N/A   Clear
9:53 PM 91.9 °F 90.3 °F 55.9 °F 30% 29.76 in 10.0 mi SSE 13.8 mph - N/A   Clear
10:53 PM 90.0 °F 88.1 °F 55.9 °F 31% 29.78 in 10.0 mi South 19.6 mph - N/A   Clear
11:53 PM 88.0 °F 86.1 °F 55.0 °F 32% 29.79 in 10.0 mi SSE 15.0 mph - N/A   Clear